Location: ??
(35.3149°N, 139.6204°E)
Time: 10:14:45
(UTC+00:00)

Resurs 1-4 Rocket - Pass Details

Date: 03 August 2024
Orbit: 798 x 813 km, 98.7° (Epoch: 06 September)

Event Time Altitude Azimuth Distance (km) Brightness Sun altitude
Rises 15:42:04 0° 28° (NNE) 3,338 6.3 -35.9°
Reaches altitude 10° 15:44:50 10° 41° (NE) 2,400 5.2 -35.7°
Enters shadow 15:47:38 22° 70° (ENE) 1,710 4.0 -35.5°
